Meteo pe oră la Dacha

Astăzi, 11 Aprilie, Duminică

Timp Temperatura Precipitaţii Vânt Presiune Umiditate
00:00 +6°C° 0 mm 2 m/s 762 mmHg 51%
01:00 +5°C° 0 mm 2 m/s 762 mmHg 54%
02:00 +5°C° 0 mm 2 m/s 762 mmHg 56%
03:00 +5°C° 0 mm 2 m/s 762 mmHg 58%
04:00 +3°C° 0 mm 3 m/s 762 mmHg 60%
05:00 +3°C° 0 mm 3 m/s 763 mmHg 62%
06:00 +5°C° 0 mm 3 m/s 763 mmHg 58%
07:00 +7°C° 0 mm 3 m/s 763 mmHg 53%
08:00 +8°C° 0 mm 4 m/s 763 mmHg 48%
09:00 +10°C° 0 mm 4 m/s 763 mmHg 44%
10:00 +11°C° 0 mm 4 m/s 763 mmHg 41%
11:00 +13°C° 0 mm 5 m/s 763 mmHg 37%
12:00 +13°C° 0 mm 5 m/s 762 mmHg 35%
13:00 +14°C° 0 mm 5 m/s 762 mmHg 34%
14:00 +15°C° 0 mm 5 m/s 761 mmHg 33%
15:00 +14°C° 0 mm 5 m/s 761 mmHg 34%
16:00 +14°C° 0 mm 5 m/s 761 mmHg 36%
17:00 +14°C° 0 mm 5 m/s 761 mmHg 37%
18:00 +13°C° 0 mm 4 m/s 761 mmHg 41%
19:00 +11°C° 0 mm 4 m/s 761 mmHg 45%
20:00 +10°C° 0 mm 3 m/s 761 mmHg 50%
21:00 +9°C° 0 mm 3 m/s 761 mmHg 52%
22:00 +9°C° 0 mm 3 m/s 761 mmHg 55%
23:00 +8°C° 0 mm 3 m/s 761 mmHg 58%

Mâine, 12 Aprilie, Luni

Timp Temperatura Precipitaţii Vânt Presiune Umiditate
00:00 +8°C° 0 mm 3 m/s 760 mmHg 59%
01:00 +7°C° 0 mm 3 m/s 760 mmHg 61%
02:00 +7°C° 0 mm 3 m/s 760 mmHg 62%
03:00 +6°C° 0 mm 4 m/s 759 mmHg 63%
04:00 +6°C° 0 mm 4 m/s 759 mmHg 63%
05:00 +6°C° 0 mm 4 m/s 759 mmHg 64%
06:00 +7°C° 0.1 mm 4 m/s 759 mmHg 67%
07:00 +7°C° 0.1 mm 4 m/s 758 mmHg 71%
08:00 +7°C° 0.1 mm 4 m/s 758 mmHg 74%
09:00 +9°C° 0.1 mm 3 m/s 758 mmHg 73%
10:00 +10°C° 0.1 mm 3 m/s 758 mmHg 72%
11:00 +12°C° 0.1 mm 3 m/s 758 mmHg 71%
12:00 +12°C° 0.2 mm 3 m/s 757 mmHg 73%
13:00 +12°C° 0.2 mm 3 m/s 757 mmHg 75%
14:00 +13°C° 0.2 mm 3 m/s 757 mmHg 76%
15:00 +12°C° 0.2 mm 3 m/s 757 mmHg 80%
16:00 +12°C° 0.2 mm 2 m/s 757 mmHg 84%
17:00 +12°C° 0.2 mm 2 m/s 756 mmHg 87%
18:00 +10°C° 0 mm 2 m/s 757 mmHg 89%
19:00 +9°C° 0 mm 2 m/s 757 mmHg 91%
20:00 +9°C° 0 mm 3 m/s 757 mmHg 92%
21:00 +9°C° 0 mm 3 m/s 757 mmHg 92%
22:00 +8°C° 0 mm 3 m/s 757 mmHg 93%
23:00 +8°C° 0 mm 3 m/s 757 mmHg 93%

Poimâine, 13 Aprilie, Marţi

Timp Temperatura Precipitaţii Vânt Presiune Umiditate
00:00 +8°C° 0 mm 2 m/s 757 mmHg 92%
01:00 +7°C° 0 mm 2 m/s 757 mmHg 92%
02:00 +7°C° 0 mm 2 m/s 757 mmHg 91%
03:00 +7°C° 0 mm 2 m/s 757 mmHg 90%
04:00 +7°C° 0 mm 2 m/s 757 mmHg 89%
05:00 +8°C° 0 mm 2 m/s 757 mmHg 88%
06:00 +9°C° 0 mm 2 m/s 757 mmHg 85%
07:00 +9°C° 0 mm 2 m/s 757 mmHg 81%
08:00 +10°C° 0 mm 2 m/s 757 mmHg 77%
09:00 +13°C° 0 mm 2 m/s 757 mmHg 71%
10:00 +13°C° 0 mm 3 m/s 757 mmHg 65%
11:00 +14°C° 0 mm 3 m/s 757 mmHg 59%
12:00 +14°C° 0 mm 3 m/s 757 mmHg 57%
13:00 +16°C° 0 mm 3 m/s 757 mmHg 55%
14:00 +16°C° 0 mm 3 m/s 757 mmHg 52%
15:00 +16°C° 0 mm 3 m/s 757 mmHg 53%
16:00 +16°C° 0 mm 3 m/s 756 mmHg 54%
17:00 +16°C° 0 mm 3 m/s 756 mmHg 55%
18:00 +14°C° 0 mm 3 m/s 756 mmHg 59%
19:00 +14°C° 0 mm 2 m/s 757 mmHg 63%
20:00 +13°C° 0 mm 2 m/s 757 mmHg 67%
21:00 +13°C° 0 mm 2 m/s 757 mmHg 66%
22:00 +13°C° 0 mm 2 m/s 756 mmHg 66%
23:00 +12°C° 0 mm 2 m/s 756 mmHg 66%

14 Aprilie, Miercuri

Timp Temperatura Precipitaţii Vânt Presiune Umiditate
00:00 +12°C° 0 mm 2 m/s 756 mmHg 67%
01:00 +12°C° 0 mm 2 m/s 756 mmHg 68%
02:00 +12°C° 0 mm 2 m/s 756 mmHg 68%
03:00 +10°C° 0 mm 2 m/s 756 mmHg 70%
04:00 +10°C° 0 mm 2 m/s 756 mmHg 71%
05:00 +9°C° 0 mm 2 m/s 756 mmHg 72%
06:00 +10°C° 0 mm 2 m/s 756 mmHg 68%
07:00 +12°C° 0 mm 2 m/s 756 mmHg 63%
08:00 +13°C° 0 mm 2 m/s 756 mmHg 59%
09:00 +14°C° 0 mm 2 m/s 756 mmHg 55%
10:00 +16°C° 0 mm 3 m/s 755 mmHg 51%
11:00 +17°C° 0 mm 3 m/s 755 mmHg 47%
12:00 +18°C° 0 mm 4 m/s 755 mmHg 45%
13:00 +18°C° 0 mm 4 m/s 754 mmHg 44%
14:00 +19°C° 0 mm 4 m/s 754 mmHg 42%
15:00 +18°C° 0 mm 4 m/s 754 mmHg 44%
16:00 +18°C° 0 mm 4 m/s 754 mmHg 47%
17:00 +17°C° 0 mm 4 m/s 753 mmHg 50%
18:00 +17°C° 0 mm 3 m/s 754 mmHg 53%
19:00 +16°C° 0 mm 3 m/s 754 mmHg 56%
20:00 +14°C° 0 mm 3 m/s 754 mmHg 59%
21:00 +13°C° 0 mm 3 m/s 754 mmHg 61%
22:00 +12°C° 0 mm 3 m/s 754 mmHg 64%
23:00 +12°C° 0 mm 3 m/s 754 mmHg 66%

15 Aprilie, Joi

Timp Temperatura Precipitaţii Vânt Presiune Umiditate
00:00 +11°C° 0 mm 3 m/s 754 mmHg 69%
01:00 +10°C° 0 mm 2 m/s 753 mmHg 71%
02:00 +9°C° 0 mm 2 m/s 753 mmHg 74%
03:00 +9°C° 0 mm 2 m/s 753 mmHg 74%
04:00 +9°C° 0 mm 2 m/s 753 mmHg 74%
05:00 +9°C° 0 mm 2 m/s 753 mmHg 75%
06:00 +10°C° 0 mm 3 m/s 753 mmHg 70%
07:00 +11°C° 0 mm 3 m/s 753 mmHg 65%
08:00 +11°C° 0 mm 4 m/s 753 mmHg 60%
09:00 +12°C° 0 mm 4 m/s 753 mmHg 57%
10:00 +13°C° 0 mm 5 m/s 752 mmHg 54%
11:00 +14°C° 0 mm 5 m/s 752 mmHg 51%
12:00 +14°C° 0.1 mm 5 m/s 752 mmHg 57%
13:00 +13°C° 0.1 mm 5 m/s 752 mmHg 64%
14:00 +12°C° 0.1 mm 5 m/s 752 mmHg 71%
15:00 +12°C° 0.3 mm 5 m/s 752 mmHg 74%
16:00 +11°C° 0.3 mm 4 m/s 752 mmHg 77%
17:00 +11°C° 0.3 mm 3 m/s 751 mmHg 81%
18:00 +10°C° 0.5 mm 2 m/s 751 mmHg 83%
19:00 +10°C° 0.5 mm 2 m/s 751 mmHg 86%
20:00 +10°C° 0.5 mm 2 m/s 751 mmHg 89%
21:00 +9°C° 0.1 mm 2 m/s 751 mmHg 89%
22:00 +9°C° 0.1 mm 3 m/s 751 mmHg 88%
23:00 +9°C° 0.1 mm 3 m/s 751 mmHg 87%

16 Aprilie, Vineri

Timp Temperatura Precipitaţii Vânt Presiune Umiditate
00:00 +8°C° 0 mm 3 m/s 750 mmHg 88%
01:00 +7°C° 0 mm 3 m/s 750 mmHg 88%
02:00 +5°C° 0 mm 3 m/s 750 mmHg 89%
03:00 +5°C° 0 mm 3 m/s 750 mmHg 90%
04:00 +4°C° 0 mm 3 m/s 750 mmHg 91%
05:00 +4°C° 0 mm 3 m/s 750 mmHg 92%
06:00 +5°C° 0 mm 3 m/s 750 mmHg 85%
07:00 +7°C° 0 mm 3 m/s 750 mmHg 78%
08:00 +8°C° 0 mm 3 m/s 750 mmHg 71%
09:00 +9°C° 0 mm 3 m/s 750 mmHg 65%
10:00 +10°C° 0 mm 3 m/s 750 mmHg 59%
11:00 +13°C° 0 mm 2 m/s 750 mmHg 54%
12:00 +13°C° 0 mm 2 m/s 750 mmHg 54%
13:00 +12°C° 0 mm 2 m/s 749 mmHg 54%
14:00 +12°C° 0 mm 2 m/s 749 mmHg 55%
15:00 +10°C° 0.1 mm 4 m/s 750 mmHg 64%
16:00 +7°C° 0.1 mm 6 m/s 750 mmHg 72%
17:00 +5°C° 0.1 mm 8 m/s 751 mmHg 81%
18:00 +4°C° 0.1 mm 8 m/s 751 mmHg 85%
19:00 +2°C° 0.1 mm 8 m/s 752 mmHg 89%
20:00 +1°C° 0.1 mm 8 m/s 752 mmHg 93%
21:00 +1°C° 0.2 mm 8 m/s 753 mmHg 91%
22:00 0°C° 0.2 mm 8 m/s 753 mmHg 89%
23:00 0°C° 0.2 mm 8 m/s 754 mmHg 87%
Arată mai mult

Formular de consimțământ

Meteoprog și furnizorii noștri de servicii pot stoca și accesa date personale, precum cookies, identificatori de dispozitiv sau alte tehnologii similare pe dispozitivul dumneavoastră și procesa astfel de date pentru a personaliza conținutul și reclamele, dar și pentru a oferi caracteristici de social media și pentru a analiza traficul.

  • Stocarea și/sau accesarea informațiilor pe dispozitivul dumneavoastră

    Cookies, identificatori de dispozitiv sau alte informații pot fi stocate sau accesate pe dispozitiv în scopurile indicate mai sus.

  • Reclame și conținut personalizat, evaluarea reclamelor și a conținutului, informații despre audiențe și dezvoltarea produselor

    Reclamele și conținutul pot fi personalizate pe baza unui profil. Pot fi adăugate date suplimentare pentru a personaliza mai bine reclamele și conținutul. Performanța reclamelor și conținutului poate fi măsurată. Pot fi obținute informații despre utilizatorii care au văzut reclamele și conținutul. Aceste date pot fi utilizate pentru a dezvolta sau îmbunătăți experiența utilizatorilor, sistemele și software-ul.

Dând clic pe ‘Sunt de acord’, permiteți utilizarea cookie-urilor menționate, a identificatorilor de dispozitiv, balizelor web sau altor tehnologii similare. Setările pot fi modificate din browser-ul dispozitivului dumneavoastră.

În anumite scopuri, interesele legitime pot prima asupra consimțământului. Puteți citi mai multe informații în acest sens în Politica privind Confidențialitatea Datelor și Cookie.